TimeEST,TemperatureF,Dew PointF,Humidity,Sea Level PressureIn,VisibilityMPH,Wind Direction,Wind SpeedMPH,Gust SpeedMPH,PrecipitationIn,Events,Conditions,WindDirDegrees,DateUTC
12:38 AM,62.6,60.8,94,30.02,2.0,Calm,Calm,-,0.22,Rain,Heavy Rain,0,2013-12-23 05:38:00
12:40 AM,62.6,60.8,94,30.02,1.8,Calm,Calm,-,0.23,Rain,Heavy Rain,0,2013-12-23 05:40:00
12:42 AM,62.6,60.8,94,30.02,2.0,Calm,Calm,-,0.23,Rain,Heavy Rain,0,2013-12-23 05:42:00
12:53 AM,62.1,60.1,93,29.98,2.5,Calm,Calm,-,0.28,Rain,Rain,0,2013-12-23 05:53:00
1:00 AM,62.6,60.8,94,30.03,5.0,South,3.5,-,0.00,Rain,Light Rain,190,2013-12-23 06:00:00
1:14 AM,62.6,60.8,94,30.01,10.0,South,8.1,-,0.01,Rain,Light Rain,190,2013-12-23 06:14:00
1:28 AM,62.6,60.8,94,30.01,10.0,South,6.9,-,0.01,Rain,Light Rain,180,2013-12-23 06:28:00
1:53 AM,63.0,61.0,93,29.97,3.0,SSW,8.1,-,0.02,Rain,Light Rain,210,2013-12-23 06:53:00
2:09 AM,62.6,60.8,94,30.02,3.0,SSW,9.2,-,0.01,Rain,Rain,210,2013-12-23 07:09:00
2:28 AM,62.6,62.6,100,30.02,5.0,SW,6.9,-,0.05,Rain,Rain,220,2013-12-23 07:28:00
2:53 AM,63.0,61.0,93,29.97,7.0,Calm,Calm,-,0.08,Rain,Light Rain,0,2013-12-23 07:53:00
3:03 AM,62.6,60.8,94,30.02,5.0,SSW,4.6,-,0.02,Rain,Rain,210,2013-12-23 08:03:00
3:14 AM,62.6,60.8,94,30.01,6.0,SW,3.5,-,0.05,Rain,Rain,230,2013-12-23 08:14:00
3:53 AM,62.1,60.1,93,29.96,10.0,Calm,Calm,-,0.10,Rain,Light Rain,0,2013-12-23 08:53:00
4:45 AM,60.8,60.8,100,30.01,4.0,SSW,5.8,-,0.10,Rain,Rain,200,2013-12-23 09:45:00
4:53 AM,61.0,60.1,97,29.97,5.0,SSW,6.9,-,0.11,Rain,Rain,210,2013-12-23 09:53:00
5:09 AM,60.8,60.8,100,30.01,7.0,SW,5.8,-,0.03,Rain,Rain,230,2013-12-23 10:09:00
5:53 AM,61.0,59.0,93,29.96,10.0,South,4.6,-,0.10,Rain,Light Rain,180,2013-12-23 10:53:00
6:33 AM,60.8,59.0,94,29.99,8.0,Variable,3.5,-,0.04,Rain,Light Rain,0,2013-12-23 11:33:00
6:44 AM,60.8,59.0,94,30.00,10.0,South,5.8,-,0.05,Rain,Light Rain,190,2013-12-23 11:44:00
6:53 AM,61.0,59.0,93,29.96,10.0,SW,4.6,-,0.06,Rain,Light Rain,220,2013-12-23 11:53:00
7:03 AM,60.8,59.0,94,30.02,10.0,SW,4.6,-,0.00,Rain,Light Rain,220,2013-12-23 12:03:00
7:35 AM,60.8,57.2,88,30.04,10.0,South,11.5,-,0.01,Rain,Light Rain,190,2013-12-23 12:35:00
7:53 AM,60.1,57.9,93,30.01,10.0,SW,8.1,-,0.02,Rain,Light Rain,230,2013-12-23 12:53:00
8:53 AM,59.0,57.9,96,30.00,10.0,Calm,Calm,-,0.02,Rain,Light Rain,0,2013-12-23 13:53:00
9:26 AM,59.0,57.2,94,30.05,10.0,South,3.5,-,0.02,Rain,Light Rain,180,2013-12-23 14:26:00
9:50 AM,59.0,57.2,94,30.05,10.0,South,4.6,-,0.02,Rain,Light Rain,190,2013-12-23 14:50:00
9:53 AM,59.0,57.0,93,30.01,10.0,SSW,5.8,-,0.02,Rain,Light Rain,200,2013-12-23 14:53:00
10:53 AM,59.0,57.0,93,30.03,10.0,West,6.9,-,0.00,Rain,Light Rain,280,2013-12-23 15:53:00
11:07 AM,57.2,55.4,94,30.09,10.0,WNW,5.8,-,0.00,,Overcast,300,2013-12-23 16:07:00
11:53 AM,57.9,53.1,84,30.03,10.0,WNW,3.5,-,0.00,,Overcast,300,2013-12-23 16:53:00
12:06 PM,57.2,53.6,88,30.06,10.0,Calm,Calm,-,N/A,,Overcast,0,2013-12-23 17:06:00
12:53 PM,57.9,53.1,84,30.01,10.0,Calm,Calm,-,N/A,,Overcast,0,2013-12-23 17:53:00
1:53 PM,59.0,52.0,78,30.01,10.0,WNW,3.5,-,N/A,,Mostly Cloudy,290,2013-12-23 18:53:00
2:53 PM,57.0,46.0,67,30.02,10.0,WNW,6.9,-,N/A,,Mostly Cloudy,300,2013-12-23 19:53:00
3:53 PM,55.9,44.1,64,30.04,10.0,NW,5.8,-,N/A,,Overcast,320,2013-12-23 20:53:00
4:53 PM,53.1,41.0,64,30.06,10.0,NNW,8.1,-,N/A,,Clear,330,2013-12-23 21:53:00
5:53 PM,50.0,37.9,63,30.08,10.0,NNW,5.8,-,N/A,,Scattered Clouds,330,2013-12-23 22:53:00
6:53 PM,48.0,37.9,68,30.09,10.0,NNW,6.9,-,N/A,,Clear,330,2013-12-23 23:53:00
7:53 PM,46.9,36.0,66,30.11,10.0,NNW,6.9,-,N/A,,Mostly Cloudy,330,2013-12-24 00:53:00
8:53 PM,45.0,35.1,68,30.13,10.0,NW,5.8,-,N/A,,Overcast,320,2013-12-24 01:53:00
9:53 PM,44.1,34.0,68,30.14,10.0,North,4.6,-,N/A,,Overcast,360,2013-12-24 02:53:00
10:53 PM,42.1,32.0,67,30.15,10.0,North,4.6,-,N/A,,Overcast,10,2013-12-24 03:53:00
11:53 PM,41.0,30.0,65,30.15,10.0,North,5.8,-,N/A,,Mostly Cloudy,10,2013-12-24 04:53:00